Погода в Ораниенбурге

Германия     52°45′13″N   13°14′10″E
темп.,
°C
ветер,
м/с
пор.,
м/с
влажн.,
%
обл.,
%
осадки,
мм/ч
давл.,
гПа
погр.,
м
24 сентября, пт
пт2423:00+14зсз81770100 0.3 10081338
02:00+11зсз71573100 0.3 10091029
05:00+12з61277100 0.0 10111211
08:00+12з6127761 0.0 1012913
11:00+15зсз711525 0.0 10131031
14:00+18з710495 0.0 10121281
17:00+17з61065100 0.0 1012973
20:00+15зюз4118256 0.0 1013683
25 сентября, сб
сб2523:00+15юз4118885 0.1 1013477
02:00+15з412890 0.2 1013579
05:00+14зюз5129336 0.0 1013469
08:00+14зюз41186100 0.0 1014553
11:00+18з5867100 0.0 1016962
14:00+19з466799 0.0 1016783
17:00+19з456767 0.0 1016989
20:00+17з237886 0.0 101859
26 сентября, вс
вс2623:00+16ююз118257 0.0 101813
02:00+14ююв11931 0.0 101910
05:00+13юв22953 0.0 101930
08:00+14юв259222 0.0 1019136
11:00+20вюв46655 0.0 1019644
14:00+23юв455249 0.0 10181290
17:00+23вюв3553100 0.0 10161126
20:00+19в397199 0.0 1016217
27 сентября, пн
пн2723:00+17вюв497748 0.0 1016242
02:00+16юв248449 0.0 101784
05:00+15ююв228550 0.0 101740
08:00+15юв128590 0.0 101748
11:00+21ю3463100 0.0 1018557
14:00+22зюз2261100 0.0 1018590
17:00+22зюз1163100 0.1 1019370
20:00+18зюз1181100 1.0 101913
28 сентября, вт
вт2823:00+16зсз1397100 3.4 102189
02:00+15зсз4995100 3.6 1022375
05:00+15сз4793100 0.0 1023464
08:00+13зсз3694100 0.1 1025360
11:00+15ссз347766 0.0 1026520
14:00+18с226183 0.0 1025931
17:00+18всв1161100 0.0 1024980
20:00+15в2480100 0.0 1023156